Oujda, Morocco

8:30 PM WEST on August 17, 2017 (GMT +0100)
Oujda

Weather History for GMFO - November, 2012

Change the Weather History Date:

Thursday, November 15, 2012

  Actual Average Record
Temperature  
Mean Temperature 56 °F -  
Max Temperature 68 °F 63 °F 80 °F (2006)
Min Temperature 43 °F 44 °F 35 °F (2008)
Degree Days  
Heating Degree Days 10    
Growing Degree Days 6 (Base 50)    
Moisture  
Dew Point 51 °F    
Average Humidity 90    
Maximum Humidity 100    
Minimum Humidity 58    
Precipitation  
Precipitation 0.00 in 0.05 in - ()
Sea Level Pressure  
Sea Level Pressure 30.04 in    
Wind  
Wind Speed 4 mph ()    
Max Wind Speed 13 mph    
Max Gust Speed -    
Visibility 5.2 miles    
Events Fog    
Averages and records for this station are not official NWS values.
T = Trace of Precipitation, MM = Missing Value Source: Averaged Metar Reports

Daily Weather History Graph

Daily Weather History Graph

Search for Another Location

Airport or City:

Trip Planner

Search our weather history database for the weather conditions in past years. The results will help you decide how hot, cold, wet, or windy it might be!

Date:

Astronomy

Nov. 15, 2012 Rise Set
Actual Time 6:41 AM WET 5:02 PM WET
Civil Twilight 6:15 AM WET 5:29 PM WET
Nautical Twilight 5:44 AM WET 5:59 PM WET
Astronomical Twilight 5:14 AM WET 6:29 PM WET
Moon 8:19 AM WET (11/15) 6:40 PM WET (11/15)
Length of Visible Light 11h 14m
Length of Day
10h 20m
Waxing Crescent, 4% of the Moon is Illuminated
Nov 15
Waxing Crescent
Nov 20
First Quarter
Nov 28
Full
Dec 6
Last Quarter
Dec 13
New

Hourly Weather History & Observations

Time (WET) Temp. Windchill Dew Point Humidity Pressure Visibility Wind Dir Wind Speed Gust Speed Precip Events Conditions
12:00 AM 50 °F - 49 °F 95% 30.06 in 6 mi WSW 4.6 mph - -   Scattered Clouds
12:00 AM 50.0 °F - 48.2 °F 94% 30.04 in 6.2 mi WSW 4.6 mph - N/A   Partly Cloudy
1:00 AM 48.2 °F - 48.2 °F 100% 30.04 in 6.2 mi SW 2.3 mph - N/A   Partly Cloudy
2:00 AM 46.4 °F 44.3 °F 46.4 °F 100% 30.01 in 6.2 mi SW 4.6 mph - N/A   Partly Cloudy
3:00 AM 46 °F - 46 °F 99% 30.04 in 6 mi SSW 4.6 mph - -   Scattered Clouds
3:00 AM 46.4 °F 43.5 °F 46.4 °F 100% 30.01 in 1.2 mi SW 5.8 mph - N/A   Mostly Cloudy
4:00 AM 46.4 °F 44.3 °F 46.4 °F 100% 30.01 in 1.2 mi SW 4.6 mph - N/A   Mostly Cloudy
5:00 AM 46.4 °F - 44.6 °F 93% 30.04 in 1.2 mi Variable 2.3 mph - N/A Fog Fog
5:07 AM 46.4 °F - 44.6 °F 93% 30.04 in 0.2 mi Variable 2.3 mph - N/A Fog Fog
6:00 AM 44 °F - 44 °F 98% 30.07 in 2 mi South 3.5 mph - -   Mist
6:00 AM 44.6 °F 43.1 °F 44.6 °F 100% 30.04 in 1.9 mi South 3.5 mph - N/A   Scattered Clouds
6:45 AM 46.4 °F 45.2 °F 46.4 °F 100% 30.04 in 3.7 mi SW 3.5 mph - N/A   Scattered Clouds
7:00 AM 46.4 °F 45.2 °F 46.4 °F 100% 30.04 in 3.7 mi SW 3.5 mph - N/A   Scattered Clouds
8:00 AM 50.0 °F - 50.0 °F 100% 30.04 in 5.0 mi SW 2.3 mph - N/A   Unknown
9:00 AM 54 °F - 54 °F 98% 30.07 in 9 mi Calm Calm - -   Mostly Cloudy
9:00 AM 53.6 °F - 53.6 °F 100% 30.06 in - Calm Calm - N/A   Clear
10:00 AM 55.4 °F - 55.4 °F 100% 30.06 in - Variable 2.3 mph - N/A   Clear
11:00 AM 59.0 °F - 53.6 °F 82% 30.06 in - Variable 2.3 mph - N/A   Clear
12:00 PM 64 °F - 53 °F 58% 30.00 in 9 mi NE 1.2 mph - -   Scattered Clouds
12:00 PM 64.4 °F - 53.6 °F 68% 30.04 in - Variable 1.2 mph - N/A   Clear
1:00 PM 66.2 °F - 53.6 °F 64% 30.01 in 6.2 mi NNE 4.6 mph - N/A   Partly Cloudy
2:00 PM 68.0 °F - 55.4 °F 64% 30.01 in 6.2 mi North 10.4 mph - N/A   Partly Cloudy
3:00 PM 66.2 °F - 57.2 °F 73% 30.01 in 6.2 mi North 12.7 mph - N/A   Partly Cloudy
4:00 PM 64.4 °F - 55.4 °F 73% 30.04 in 6.2 mi North 11.5 mph - N/A   Scattered Clouds
5:00 PM 60.8 °F - 55.4 °F 82% 30.04 in 6.2 mi North 9.2 mph - N/A   Scattered Clouds
6:00 PM 58 °F - 54 °F 83% 30.03 in 6 mi North 5.8 mph - -   Partly Cloudy
6:00 PM 59.0 °F - 53.6 °F 82% 30.04 in 6.2 mi North 5.8 mph - N/A   Scattered Clouds
8:00 PM 55.4 °F - 53.6 °F 94% 30.06 in 6.2 mi West 3.5 mph - N/A   Scattered Clouds
9:00 PM 56 °F - 54 °F 91% 30.06 in 9 mi West 2.3 mph - -   Partly Cloudy
9:00 PM 55.4 °F - 53.6 °F 94% 30.06 in 6.2 mi Variable 2.3 mph - N/A   Scattered Clouds
11:00 PM 55.4 °F - 55.4 °F 100% 30.06 in 6.2 mi SSW 2.3 mph - N/A   Scattered Clouds